Regional Weather Roundup
Issued by NWS

Home | Current Version | Previous Version | Text Only | Print | Product List | Glossary On
Versions: 1 2 3 4 5 6 7 8 9 10 11 12 13 14 15 16 17 18 19 20 21 22 23 24 25 26 27 28 29 30 31 32 33 34 35 36 37 38 39 40 41 42 43 44 45 46 47 48 49 50
000
ASUS46 KSEW 110710
RWRWA

WASHINGTON REGIONAL WEATHER ROUNDUP
NATIONAL WEATHER SERVICE SEATTLE WA
1200 AM PDT FRI JUL 11 2014

NOTE:"FAIR" INDICATES FEW OR NO CLOUDS BELOW 12,000 FEET WITH NO
SIGNIFICANT WEATHER AND/OR OBSTRUCTIONS TO VISIBILITY.

WAZ505-507>509-110800-
SEATTLE, TACOMA, EVERETT, AND VICINITY

CITY           SKY/WX    TMP DP  RH WIND       PRES   REMARKS
EVERETT        CLEAR     61  52  72 CALM      29.95R
BOEING FIELD   CLEAR     69  52  54 CALM      29.91S
RENTON         CLEAR     70  56  61 N7        29.91R
SEATAC AIRPORT CLEAR     68  52  56 N8        29.93S
JBLM-MCCHORD   CLEAR     64  50  60 CALM      29.92S
PUYALLUP       FAIR      57  55  94 CALM      29.93S
JBLM-FT LEWIS  CLEAR     68  51  53 NW3       29.92R
TACOMA NARROWS CLEAR     67  48  50 N7        29.92S
$$

WAZ001-503-506-510-514-515-110800-
NORTH INTERIOR

CITY           SKY/WX    TMP DP  RH WIND       PRES   REMARKS
BELLINGHAM     CLEAR     60  56  86 CALM      29.92R
FRIDAY HARBOR  CLEAR     50  49  96 CALM      29.93S
EASTSOUND      CLEAR     59  54  82 MISG      29.90S
PORT ANGELES   CLEAR     53  50  89 SW3       29.93S
NAS WHIDBEY    CLEAR     56  51  84 SE5       29.93S
BURLINGTON     CLEAR     55  54  94 CALM      29.94R
$$

WAZ020-022-039-040-504-511-512-110800-
SOUTHWEST INTERIOR

CITY           SKY/WX    TMP DP  RH WIND       PRES   REMARKS
SHELTON        CLEAR     61  56  83 W5        29.91R
OLYMPIA        CLEAR     62  55  77 CALM      29.91S
CHEHALIS       FAIR      61  59  94 CALM      29.92S
KELSO          CLEAR     63  55  77 N3        29.95S
VANCOUVER      CLEAR     67  56  67 CALM      29.89R
SCAPPOOSE, OR  CLEAR     66  57  72 N6        29.88R
PORTLAND, OR   CLEAR     70  57  63 CALM      29.89R
$$

WAZ021-516-517-110800-
WASHINGTON COAST

CITY           SKY/WX    TMP DP  RH WIND       PRES   REMARKS
FORKS          CLEAR     53  52  96 CALM      29.94S
HOQUIAM        CLOUDY    57  55  93 SW3       29.95S
ASTORIA, OR    CLOUDY    57  53  86 W3        29.94F
$$

WAZ019-023-024-040-518-519-110800-
CASCADE MOUNTAINS AND COLUMBIA GORGE

CITY           SKY/WX    TMP DP  RH WIND       PRES   REMARKS
STAMPEDE PASS  NOT AVBL
TROUTDALE, OR  CLEAR     71  58  63 NW3       29.88R
THE DALLES, OR CLEAR     76  57  51 NW15      29.80S
$$

WAZ026-027-041>044-520-521-110800-
EAST SLOPES

CITY           SKY/WX    TMP DP  RH WIND       PRES   REMARKS
OMAK           CLEAR     75  34  22 N9        29.89R
WENATCHEE      CLEAR     79  46  31 NW10      29.86R
ELLENSBURG     CLEAR     70  49  47 NW12      29.88S
YAKIMA         CLEAR     76  44  32 NW6       29.85R
$$

WAZ028-034-035-110800-
COLUMBIA BASIN

CITY           SKY/WX    TMP DP  RH WIND       PRES   REMARKS
EPHRATA        CLEAR     80  34  19 NW10      29.83R
MOSES LAKE     CLEAR     75  37  25 N3        29.82R
HANFORD        NOT AVBL
PASCO          CLEAR     66  56  70 CALM      29.78R
HERMISTON, OR  CLEAR     72  40  31 SW7       29.79R
$$

WAZ036>038-110800-
NORTHEAST WASHINGTON

CITY           SKY/WX    TMP DP  RH WIND       PRES   REMARKS
SPOKANE GEIGER PTCLDY    72  40  31 CALM      29.89R
SPOKANE FELTS  CLEAR     69  46  43 CALM      29.87R
FAIRCHILD AFB  CLEAR     68  43  39 NE8       29.89R
COEURDALENE,ID CLEAR     66  54  63 E3        29.89R
DEER PARK      CLEAR     62  48  60 N5        29.89R
$$

WAZ029>033-110800-
SOUTHEAST WASHINGTON

CITY           SKY/WX    TMP DP  RH WIND       PRES   REMARKS
PULLMAN        CLEAR     57  44  62 CALM      29.92S
LEWISTON, ID   PTCLDY    75  32  20 SW6       29.85R
WALLA WALLA    CLEAR     71  40  32 E9        29.83S
PENDLETON, OR  CLEAR     70  34  26 S12       29.84R
$$


USA.gov is the U.S. government's official web portal to all federal, state and local government web resources and services.